Ottumwa, IA

3:38 PM CDT on May 25, 2017 (GMT -0500)
Ottumwa Industrial

Weather History for KOTM - December, 2012

Change the Weather History Date:

Monday, December 3, 2012

  Actual Average Record
Temperature  
Mean Temperature 58 °F 30 °F  
Max Temperature 71 °F 39 °F 71 °F (2012)
Min Temperature 45 °F 21 °F -8 °F (1929)
Degree Days  
Heating Degree Days 7 35  
Month to date heating degree days 41 103  
Since 1 July heating degree days 1335 1401  
Cooling Degree Days 0 0  
Month to date cooling degree days 0 0  
Year to date cooling degree days 1237 938  
Growing Degree Days 8 (Base 50)    
Moisture  
Dew Point 50 °F    
Average Humidity 80    
Maximum Humidity 100    
Minimum Humidity 59    
Precipitation  
Precipitation 0.00 in 0.05 in 1.09 in (2011)
Month to date precipitation T 0.17  
Year to date precipitation 25.45 35.87  
Sea Level Pressure  
Sea Level Pressure 29.81 in    
Wind  
Wind Speed 15 mph (SSW)    
Max Wind Speed 25 mph    
Max Gust Speed 32 mph    
Visibility 7 miles    
Events Fog , Rain    
T = Trace of Precipitation, MM = Missing Value Source: NWS Daily Summary

Daily Weather History Graph

Daily Weather History Graph

Search for Another Location

Airport or City:

Trip Planner

Search our weather history database for the weather conditions in past years. The results will help you decide how hot, cold, wet, or windy it might be!

Date:

Astronomy

Dec. 03, 2012 Rise Set
Actual Time 7:18 AM CST 4:41 PM CST
Civil Twilight 6:47 AM CST 5:12 PM CST
Nautical Twilight 6:13 AM CST 5:46 PM CST
Astronomical Twilight 5:39 AM CST 6:19 PM CST
Moon 9:30 PM CST (12/3) 10:40 AM CST (12/3)
Length of Visible Light 10h 24m
Length of Day
9h 23m
Waning Gibbous, 78% of the Moon is Illuminated
Dec 3
Waning Gibbous
Dec 6
Last Quarter
Dec 13
New
Dec 19
First Quarter
Dec 28
Full

Hourly Weather History & Observations

Time (CST) Temp. Windchill Dew Point Humidity Pressure Visibility Wind Dir Wind Speed Gust Speed Precip Events Conditions
12:53 AM 48.9 °F - 48.0 °F 97% 29.91 in 0.5 mi SE 13.8 mph - N/A Fog Fog
1:53 AM 48.9 °F - 48.9 °F 100% 29.89 in 0.5 mi SSE 10.4 mph - N/A Fog Fog
2:53 AM 50.0 °F - 48.9 °F 96% 29.86 in 0.8 mi SSE 11.5 mph - N/A   Mist
3:07 AM 50.0 °F - 48.2 °F 94% 29.85 in 1.0 mi SSE 12.7 mph - N/A   Mist
3:32 AM 50.0 °F - 50.0 °F 100% 29.83 in 2.5 mi SSE 11.5 mph - N/A   Overcast
3:53 AM 50.0 °F - 50.0 °F 100% 29.83 in 2.5 mi SSE 10.4 mph - N/A   Overcast
4:02 AM 51.8 °F - 50.0 °F 94% 29.81 in 3.0 mi SSE 11.5 mph - N/A   Mostly Cloudy
4:13 AM 51.8 °F - 50.0 °F 94% 29.81 in 4.0 mi SSE 13.8 mph - N/A   Scattered Clouds
4:53 AM 52.0 °F - 51.1 °F 97% 29.80 in 5.0 mi South 16.1 mph - N/A   Clear
5:53 AM 54.0 °F - 52.0 °F 93% 29.77 in 6.0 mi SSE 13.8 mph - N/A   Clear
6:53 AM 55.9 °F - 54.0 °F 93% 29.77 in 8.0 mi South 17.3 mph - 0.00 in   Clear
7:53 AM 57.0 °F - 55.0 °F 93% 29.76 in 7.0 mi South 17.3 mph 24.2 mph N/A   Clear
8:53 AM 60.8 °F - 55.4 °F 82% 29.73 in 9.0 mi South 19.6 mph - N/A   Clear
9:53 AM 64.0 °F - 57.9 °F 80% 29.72 in 10.0 mi South 21.9 mph 28.8 mph N/A   Partly Cloudy
10:06 AM 62.6 °F - 57.2 °F 82% 29.73 in 10.0 mi South 19.6 mph 27.6 mph N/A   Mostly Cloudy
10:53 AM 66.0 °F - 57.0 °F 73% 29.72 in 10.0 mi SSW 19.6 mph 29.9 mph N/A   Overcast
11:18 AM 66.2 °F - 57.2 °F 73% 29.72 in 10.0 mi SSW 13.8 mph 26.5 mph N/A   Overcast
11:53 AM 66.9 °F - 57.0 °F 70% 29.71 in 10.0 mi SSW 16.1 mph - 0.00 in Rain Light Rain
12:53 PM 66.9 °F - 55.9 °F 68% 29.70 in 10.0 mi SSW 19.6 mph 27.6 mph 0.00 in   Overcast
1:53 PM 68.0 °F - 55.9 °F 65% 29.69 in 10.0 mi SSW 18.4 mph 27.6 mph 0.00 in   Overcast
2:53 PM 70.0 °F - 55.0 °F 59% 29.70 in 10.0 mi SW 18.4 mph 29.9 mph 0.00 in   Overcast
3:53 PM 68.0 °F - 54.0 °F 61% 29.73 in 10.0 mi WSW 15.0 mph - N/A   Partly Cloudy
4:53 PM 64.9 °F - 51.1 °F 61% 29.79 in 10.0 mi WNW 24.2 mph 29.9 mph N/A   Overcast
5:53 PM 57.0 °F - 46.9 °F 69% 29.84 in 10.0 mi NW 11.5 mph - N/A   Scattered Clouds
6:53 PM 54.0 °F - 42.1 °F 64% 29.89 in 10.0 mi NW 15.0 mph 23.0 mph N/A   Clear
7:53 PM 50.0 °F - 41.0 °F 71% 29.93 in 10.0 mi NW 9.2 mph - 0.00 in   Clear
8:53 PM 50.0 °F - 39.9 °F 68% 29.95 in 10.0 mi NW 11.5 mph - N/A   Clear
9:53 PM 46.9 °F - 39.0 °F 74% 29.97 in 10.0 mi NW 11.5 mph - N/A   Clear
10:53 PM 46.0 °F 39.9 °F 37.9 °F 73% 29.98 in 10.0 mi NW 13.8 mph - N/A   Clear
11:53 PM 45.0 °F 38.2 °F 36.0 °F 71% 29.99 in 10.0 mi NW 15.0 mph - N/A   Clear